"read_dt","SO2 (ppb)","flags","PMT voltage (V)","lamp voltage (V)","lamp intensity (Hz)","internal temp (C)","react chamber temp (C)","sample flow (l/min)","pres (mmHg)","SO2 bkg (ppb)","SO2 coefficient"
2015-11-18 00:00:00,1810E-3,5C000400,-0724,0835,11390,027.7,045.4,0.258,772.1,01.15,0.508
2015-11-18 00:01:00,1759E-3,5C000400,-0724,0833,9022,027.7,045.4,0.257,772.1,01.15,0.508
2015-11-18 00:02:00,1842E-3,5C000400,-0724,0831,12384,027.7,045.4,0.258,772.2,01.15,0.508
2015-11-18 00:03:00,1709E-3,5C000400,-0724,0832,12693,027.8,045.4,0.257,772.1,01.15,0.508
2015-11-18 00:04:00,1808E-3,5C000400,-0724,0834,12437,027.7,045.4,0.258,772.1,01.15,0.508
2015-11-18 00:05:00,1837E-3,5C000400,-0724,0830,12359,027.7,045.4,0.258,772.1,01.15,0.508
2015-11-18 00:06:00,1898E-3,5C000400,-0724,0829,12297,027.7,045.4,0.258,772.1,01.15,0.508
2015-11-18 00:07:00,1816E-3,5C000400,-0724,0830,11469,027.7,045.4,0.258,772.2,01.15,0.508
2015-11-18 00:08:00,1628E-3,5C000400,-0724,0837,10157,027.7,045.4,0.257,772.2,01.15,0.508
2015-11-18 00:09:00,1839E-3,5C000400,-0724,0834,11364,027.7,045.4,0.258,772.1,01.15,0.508
2015-11-18 00:10:00,1742E-3,5C000400,-0724,0834,11397,027.7,045.4,0.257,772.1,01.15,0.508
2015-11-18 00:11:00,1820E-3,5C000400,-0724,0830,11134,027.7,045.4,0.258,772.1,01.15,0.508
2015-11-18 00:12:00,1709E-3,5C000400,-0724,0833,11508,027.7,045.4,0.257,772.1,01.15,0.508
2015-11-18 00:13:00,1622E-3,5C000400,-0724,0833,12840,027.7,045.4,0.258,772.1,01.15,0.508
2015-11-18 00:14:00,1817E-3,5C000400,-0724,0833,12211,027.7,045.4,0.257,772.1,01.15,0.508
2015-11-18 00:15:00,1720E-3,5C000400,-0724,0835,9940,027.7,045.4,0.258,772.1,01.15,0.508
2015-11-18 00:16:00,1689E-3,5C000400,-0724,0838,9006,027.7,045.4,0.258,772.1,01.15,0.508
2015-11-18 00:17:00,1745E-3,5C000400,-0724,0836,12719,027.8,045.4,0.258,772.1,01.15,0.508
2015-11-18 00:18:00,1666E-3,5C000400,-0724,0838,12575,027.7,045.4,0.258,772.1,01.15,0.508
2015-11-18 00:19:00,1691E-3,5C000400,-0724,0842,12841,027.7,045.4,0.257,772.1,01.15,0.508
2015-11-18 00:20:00,1603E-3,5C000400,-0724,0838,11657,027.7,045.4,0.258,772.1,01.15,0.508
2015-11-18 00:21:00,1680E-3,5C000400,-0724,0835,10354,027.7,045.4,0.257,772.1,01.15,0.508
2015-11-18 00:22:00,1828E-3,5C000400,-0724,0829,11062,027.7,045.4,0.258,772.1,01.15,0.508
2015-11-18 00:23:00,1896E-3,5C000400,-0724,0830,11085,027.7,045.4,0.257,772.1,01.15,0.508
2015-11-18 00:24:00,1762E-3,5C000400,-0724,0836,11504,027.7,045.4,0.258,772.1,01.15,0.508
2015-11-18 00:25:00,1844E-3,5C000400,-0724,0832,11440,027.7,045.4,0.257,772.1,01.15,0.508
2015-11-18 00:26:00,1724E-3,5C000400,-0724,0830,12425,027.7,045.4,0.258,772.0,01.15,0.508
2015-11-18 00:27:00,1760E-3,5C000400,-0724,0835,12633,027.7,045.4,0.258,772.0,01.15,0.508
2015-11-18 00:28:00,1742E-3,5C000400,-0724,0835,11514,027.7,045.4,0.257,772.0,01.15,0.508
2015-11-18 00:29:00,1727E-3,5C000400,-0724,0831,11354,027.7,045.4,0.258,772.0,01.15,0.508
2015-11-18 00:30:00,1760E-3,5C000400,-0724,0836,11446,027.7,045.4,0.257,772.0,01.15,0.508
2015-11-18 00:31:00,1693E-3,5C000400,-0724,0837,10350,027.7,045.4,0.258,772.0,01.15,0.508
2015-11-18 00:32:00,1729E-3,5C000400,-0724,0835,12440,027.7,045.4,0.257,772.0,01.15,0.508
2015-11-18 00:33:00,1811E-3,5C000400,-0724,0831,12311,027.7,045.4,0.258,772.0,01.15,0.508
2015-11-18 00:34:00,1765E-3,5C000400,-0724,0828,11216,027.7,045.4,0.257,772.0,01.15,0.508
2015-11-18 00:35:00,1909E-3,5C000400,-0724,0830,12192,027.7,045.4,0.258,771.9,01.15,0.508
2015-11-18 00:36:00,1862E-3,5C000400,-0724,0830,12207,027.7,045.4,0.257,772.0,01.15,0.508
2015-11-18 00:37:00,1853E-3,5C000400,-0724,0828,12244,027.7,045.4,0.258,772.0,01.15,0.508
2015-11-18 00:38:00,1912E-3,5C000400,-0724,0830,12459,027.7,045.4,0.257,771.9,01.15,0.508
2015-11-18 00:39:00,1957E-3,5C000400,-0724,0829,12254,027.7,045.4,0.258,772.0,01.15,0.508
2015-11-18 00:40:00,1839E-3,5C000400,-0724,0830,11125,027.7,045.4,0.258,772.0,01.15,0.508
2015-11-18 00:41:00,1786E-3,5C000400,-0724,0833,10384,027.7,045.4,0.258,771.9,01.15,0.508
2015-11-18 00:42:00,1841E-3,5C000400,-0724,0839,11309,027.7,045.4,0.258,771.9,01.15,0.508
2015-11-18 00:43:00,1686E-3,5C000400,-0724,0837,12450,027.7,045.4,0.258,771.9,01.15,0.508
2015-11-18 00:44:00,1820E-3,5C000400,-0724,0830,11073,027.7,045.4,0.257,771.9,01.15,0.508
2015-11-18 00:45:00,1698E-3,5C000400,-0724,0830,12279,027.7,045.4,0.258,772.0,01.15,0.508
2015-11-18 00:46:00,1828E-3,5C000410,-0724,0832,9135,027.7,045.4,0.257,772.0,01.15,0.508
2015-11-18 00:47:00,1788E-3,5C000400,-0724,0831,12356,027.7,045.4,0.258,772.0,01.15,0.508
2015-11-18 00:48:00,1933E-3,5C000400,-0724,0831,12414,027.7,045.4,0.258,772.0,01.15,0.508
2015-11-18 00:49:00,1867E-3,5C000400,-0724,0832,12260,027.7,045.4,0.258,772.0,01.15,0.508
2015-11-18 00:50:00,1874E-3,5C000400,-0724,0831,12527,027.7,045.4,0.258,772.0,01.15,0.508
2015-11-18 00:51:00,1774E-3,5C000400,-0724,0833,12501,027.7,045.4,0.257,772.0,01.15,0.508
2015-11-18 00:52:00,1875E-3,5C000400,-0724,0832,11186,027.7,045.4,0.258,772.0,01.15,0.508
2015-11-18 00:53:00,1771E-3,5C000400,-0724,0830,12485,027.7,045.4,0.257,772.0,01.15,0.508
2015-11-18 00:54:00,1871E-3,5C000400,-0724,0831,12389,027.7,045.4,0.258,772.0,01.15,0.508
2015-11-18 00:55:00,1621E-3,5C000400,-0724,0834,11059,027.7,045.4,0.257,772.0,01.15,0.508
2015-11-18 00:56:00,1858E-3,5C000400,-0724,0831,12372,027.7,045.4,0.258,772.0,01.15,0.508
2015-11-18 00:57:00,1926E-3,5C000400,-0724,0833,10148,027.8,045.4,0.257,772.0,01.15,0.508
2015-11-18 00:58:00,1714E-3,5C000400,-0724,0835,12597,027.7,045.4,0.258,772.0,01.15,0.508
2015-11-18 00:59:00,1637E-3,5C000400,-0724,0841,12478,027.7,045.4,0.257,772.0,01.15,0.508
2015-11-18 01:00:00,1791E-3,5C000400,-0724,0835,12392,027.7,045.4,0.258,772.0,01.15,0.508
2015-11-18 01:01:00,1848E-3,5C000400,-0724,0832,12287,027.7,045.4,0.258,772.0,01.15,0.508
2015-11-18 01:02:00,1817E-3,5C000400,-0724,0830,12290,027.7,045.4,0.257,772.0,01.15,0.508
2015-11-18 01:03:00,1767E-3,5C000400,-0724,0832,11194,027.7,045.4,0.258,772.0,01.15,0.508
2015-11-18 01:04:00,1858E-3,5C000410,-0724,0832,10397,027.7,045.5,0.257,772.0,01.15,0.508
2015-11-18 01:05:00,1687E-3,5C000400,-0724,0836,12727,027.7,045.4,0.258,772.0,01.15,0.508
2015-11-18 01:06:00,1813E-3,5C000400,-0724,0833,10169,027.7,045.4,0.257,772.0,01.15,0.508
2015-11-18 01:07:00,1703E-3,5C000400,-0724,0834,12749,027.7,045.4,0.258,772.0,01.15,0.508
2015-11-18 01:08:00,1716E-3,5C000400,-0724,0833,11359,027.7,045.4,0.257,772.0,01.15,0.508
2015-11-18 01:09:00,1832E-3,5C000410,-0724,0833,8985,027.7,045.4,0.258,772.0,01.15,0.508
2015-11-18 01:10:00,1751E-3,5C000400,-0724,0834,11403,027.7,045.4,0.258,772.0,01.15,0.508
2015-11-18 01:11:00,1459E-3,5C000400,-0724,0832,12332,027.7,045.4,0.257,771.9,01.15,0.508
2015-11-18 01:12:00,1723E-3,5C000400,-0724,0838,12486,027.7,045.4,0.258,772.0,01.15,0.508
2015-11-18 01:13:00,1930E-3,5C000400,-0724,0833,7710,027.7,045.4,0.257,772.0,01.15,0.508
2015-11-18 01:14:00,1773E-3,5C000400,-0724,0833,12503,027.7,045.4,0.258,772.0,01.15,0.508
2015-11-18 01:15:00,1861E-3,5C000400,-0724,0832,11172,027.7,045.4,0.258,771.9,01.15,0.508
2015-11-18 01:16:00,1773E-3,5C000410,-0724,0837,12806,027.7,045.4,0.258,772.0,01.15,0.508
2015-11-18 01:17:00,1721E-3,5C000400,-0724,0836,12652,027.8,045.4,0.258,771.9,01.15,0.508
2015-11-18 01:18:00,1884E-3,5C000400,-0724,0832,12475,027.8,045.4,0.258,772.0,01.15,0.508
2015-11-18 01:19:00,1755E-3,5C000400,-0724,0830,12361,027.8,045.4,0.257,771.9,01.15,0.508
2015-11-18 01:20:00,1701E-3,5C000400,-0724,0831,12449,027.8,045.4,0.257,771.8,01.15,0.508
2015-11-18 01:21:00,1747E-3,5C000400,-0724,0831,12349,027.7,045.4,0.258,771.9,01.15,0.508
2015-11-18 01:22:00,1639E-3,5C000400,-0724,0828,12239,027.8,045.4,0.258,771.9,01.15,0.508
2015-11-18 01:23:00,1676E-3,5C000400,-0724,0833,9799,027.7,045.4,0.258,771.9,01.15,0.508
2015-11-18 01:24:00,1909E-3,5C000400,-0724,0833,12238,027.7,045.4,0.257,771.9,01.15,0.508
2015-11-18 01:25:00,1728E-3,5C000410,-0724,0836,9876,027.6,045.4,0.257,771.9,01.15,0.508
2015-11-18 01:26:00,1799E-3,5C000400,-0724,0839,12825,027.6,045.4,0.258,771.9,01.15,0.508
2015-11-18 01:27:00,1753E-3,5C000400,-0724,0835,11276,027.6,045.4,0.258,771.9,01.15,0.508
2015-11-18 01:28:00,1770E-3,5C000400,-0724,0835,11358,027.5,045.4,0.258,771.9,01.15,0.508
2015-11-18 01:29:00,1686E-3,5C000400,-0724,0832,12345,027.5,045.5,0.257,771.9,01.15,0.508
2015-11-18 01:30:00,1796E-3,5C000400,-0724,0830,12402,027.5,045.4,0.257,771.9,01.15,0.508
2015-11-18 01:31:00,1654E-3,5C000400,-0724,0832,12363,027.4,045.4,0.258,771.9,01.15,0.508
2015-11-18 01:32:00,1641E-3,5C000400,-0724,0831,12308,027.4,045.4,0.258,771.9,01.15,0.508
2015-11-18 01:33:00,1708E-3,5C000400,-0724,0834,12474,027.3,045.4,0.258,771.8,01.15,0.508
2015-11-18 01:34:00,1650E-3,5C000400,-0724,0833,12493,027.3,045.4,0.258,771.9,01.15,0.508
2015-11-18 01:35:00,1814E-3,5C000400,-0724,0832,12363,027.2,045.4,0.258,771.9,01.15,0.508
2015-11-18 01:36:00,1680E-3,5C000400,-0724,0831,12370,027.2,045.5,0.258,771.9,01.15,0.508
2015-11-18 01:37:00,1765E-3,5C000400,-0724,0836,12585,027.2,045.4,0.258,771.9,01.15,0.508
2015-11-18 01:38:00,1817E-3,5C000400,-0724,0830,12274,027.1,045.4,0.258,771.9,01.15,0.508
2015-11-18 01:39:00,1830E-3,5C000400,-0724,0833,12360,027.0,045.4,0.258,771.8,01.15,0.508
2015-11-18 01:40:00,1687E-3,5C000400,-0724,0840,10394,027.0,045.4,0.259,771.8,01.15,0.508
2015-11-18 01:41:00,1875E-3,5C000400,-0724,0834,12771,026.9,045.4,0.258,771.8,01.15,0.508
2015-11-18 01:42:00,1897E-3,5C000400,-0724,0836,11416,026.8,045.4,0.259,771.8,01.15,0.508
2015-11-18 01:43:00,1811E-3,5C000400,-0724,0833,12659,026.8,045.4,0.259,771.8,01.15,0.508
2015-11-18 01:44:00,1776E-3,5C000400,-0724,0831,12426,026.8,045.4,0.259,771.9,01.15,0.508
2015-11-18 01:45:00,1866E-3,5C000400,-0724,0835,12521,026.8,045.4,0.259,771.9,01.15,0.508
2015-11-18 01:46:00,1854E-3,5C000400,-0724,0834,12405,026.9,045.4,0.259,771.9,01.15,0.508
2015-11-18 01:47:00,1864E-3,5C000400,-0724,0832,12466,026.9,045.4,0.259,771.9,01.15,0.508
2015-11-18 01:48:00,1745E-3,5C000400,-0724,0830,12205,026.9,045.4,0.259,771.9,01.15,0.508
2015-11-18 01:49:00,1757E-3,5C000400,-0724,0830,12435,026.9,045.4,0.259,771.9,01.15,0.508
2015-11-18 01:50:00,1921E-3,5C000400,-0724,0831,12496,026.9,045.4,0.259,771.9,01.15,0.508
2015-11-18 01:51:00,1798E-3,5C000400,-0724,0831,12373,026.9,045.4,0.259,771.9,01.15,0.508
2015-11-18 01:52:00,1846E-3,5C000400,-0724,0832,12350,026.9,045.4,0.258,771.8,01.15,0.508
2015-11-18 01:53:00,1730E-3,5C000400,-0724,0831,12368,026.9,045.4,0.259,771.8,01.15,0.508
2015-11-18 01:54:00,1782E-3,5C000400,-0724,0833,12282,026.9,045.4,0.259,771.8,01.15,0.508
2015-11-18 01:55:00,1807E-3,5C000400,-0724,0830,11106,026.9,045.4,0.259,771.9,01.15,0.508
2015-11-18 01:56:00,1678E-3,5C000400,-0724,0831,11178,027.0,045.4,0.259,771.9,01.15,0.508
2015-11-18 01:57:00,1768E-3,5C000400,-0724,0832,12249,027.0,045.4,0.259,771.8,01.15,0.508
2015-11-18 01:58:00,1838E-3,5C000400,-0724,0830,11129,027.0,045.4,0.259,771.8,01.15,0.508
2015-11-18 01:59:00,1922E-3,5C000400,-0724,0831,12404,027.0,045.4,0.259,771.8,01.15,0.508
2015-11-18 02:00:00,1729E-3,5C000400,-0724,0832,11316,027.0,045.4,0.259,771.8,01.15,0.508
2015-11-18 02:01:00,1756E-3,5C000400,-0724,0830,11054,027.1,045.4,0.259,771.8,01.15,0.508
2015-11-18 02:02:00,1825E-3,5C000400,-0724,0834,12560,027.1,045.4,0.259,771.8,01.15,0.508
2015-11-18 02:03:00,1962E-3,5C000400,-0724,0831,12347,027.1,045.4,0.258,771.8,01.15,0.508
2015-11-18 02:04:00,1849E-3,5C000400,-0724,0831,12261,027.1,045.4,0.259,771.8,01.15,0.508
2015-11-18 02:05:00,1805E-3,5C000400,-0724,0835,12420,027.1,045.4,0.259,771.8,01.15,0.508
2015-11-18 02:06:00,1916E-3,5C000410,-0724,0831,9986,027.1,045.4,0.259,771.8,01.15,0.508
2015-11-18 02:07:00,1800E-3,5C000400,-0724,0829,12240,027.1,045.4,0.259,771.8,01.15,0.508
2015-11-18 02:08:00,1803E-3,5C000400,-0724,0832,12468,027.1,045.4,0.259,771.8,01.15,0.508
2015-11-18 02:09:00,1737E-3,5C000400,-0724,0831,11003,027.1,045.4,0.259,771.8,01.15,0.508
2015-11-18 02:10:00,1795E-3,5C000400,-0724,0832,12369,027.1,045.4,0.259,771.8,01.15,0.508
2015-11-18 02:11:00,1702E-3,5C000400,-0724,0833,12244,027.2,045.4,0.258,771.8,01.15,0.508
2015-11-18 02:12:00,1937E-3,5C000400,-0724,0831,12311,027.2,045.4,0.259,771.8,01.15,0.508
2015-11-18 02:13:00,1851E-3,5C000400,-0724,0833,12452,027.2,045.4,0.259,771.8,01.15,0.508
2015-11-18 02:14:00,1681E-3,5C000400,-0724,0831,12307,027.2,045.4,0.258,771.8,01.15,0.508
2015-11-18 02:15:00,1877E-3,5C000400,-0724,0830,12376,027.2,045.4,0.259,771.8,01.15,0.508
2015-11-18 02:16:00,1791E-3,5C000400,-0724,0828,10898,027.2,045.4,0.258,771.8,01.15,0.508
2015-11-18 02:17:00,1705E-3,5C000400,-0724,0830,12404,027.2,045.4,0.258,771.8,01.15,0.508
2015-11-18 02:18:00,1755E-3,5C000400,-0724,0830,11145,027.2,045.4,0.259,771.8,01.15,0.508
2015-11-18 02:19:00,1730E-3,5C000400,-0724,0833,11297,027.2,045.4,0.258,771.8,01.15,0.508
2015-11-18 02:20:00,1801E-3,5C000400,-0724,0832,12266,027.2,045.4,0.258,771.8,01.15,0.508
2015-11-18 02:21:00,1947E-3,5C000400,-0724,0832,12340,027.3,045.4,0.259,771.8,01.15,0.508
2015-11-18 02:22:00,1837E-3,5C000400,-0724,0835,12436,027.3,045.4,0.259,771.8,01.15,0.508
2015-11-18 02:23:00,1670E-3,5C000400,-0724,0832,11376,027.3,045.4,0.258,771.8,01.15,0.508
2015-11-18 02:24:00,1747E-3,5C000400,-0724,0832,11214,027.3,045.4,0.258,771.8,01.15,0.508
2015-11-18 02:25:00,1768E-3,5C000400,-0724,0832,11067,027.3,045.4,0.258,771.7,01.15,0.508
2015-11-18 02:26:00,1925E-3,5C000400,-0724,0830,12276,027.3,045.4,0.258,771.8,01.15,0.508
2015-11-18 02:27:00,1805E-3,5C000400,-0724,0831,12340,027.3,045.4,0.258,771.8,01.15,0.508
2015-11-18 02:28:00,1837E-3,5C000400,-0724,0832,10068,027.3,045.4,0.258,771.7,01.15,0.508
2015-11-18 02:29:00,1933E-3,5C000400,-0724,0839,12709,027.3,045.4,0.259,771.7,01.15,0.508
2015-11-18 02:30:00,1821E-3,5C000400,-0724,0834,12511,027.3,045.4,0.258,771.7,01.15,0.508
2015-11-18 02:31:00,1756E-3,5C000400,-0724,0834,11290,027.3,045.4,0.258,771.8,01.15,0.508
2015-11-18 02:32:00,1759E-3,5C000400,-0724,0833,11636,027.4,045.4,0.258,771.7,01.15,0.508
2015-11-18 02:33:00,1656E-3,5C000400,-0724,0830,12341,027.4,045.4,0.258,771.7,01.15,0.508
2015-11-18 02:34:00,1844E-3,5C000400,-0724,0829,11330,027.4,045.4,0.258,771.7,01.15,0.508
2015-11-18 02:35:00,1773E-3,5C000400,-0724,0831,10422,027.4,045.4,0.258,771.7,01.15,0.508
2015-11-18 02:36:00,1735E-3,5C000400,-0724,0830,12504,027.4,045.4,0.258,771.8,01.15,0.508
2015-11-18 02:37:00,1811E-3,5C000400,-0724,0835,11340,027.4,045.4,0.258,771.7,01.15,0.508
2015-11-18 02:38:00,1829E-3,5C000400,-0724,0833,12335,027.4,045.4,0.258,771.7,01.15,0.508
2015-11-18 02:39:00,1739E-3,5C000400,-0724,0833,10094,027.4,045.4,0.258,771.7,01.15,0.508
2015-11-18 02:40:00,1810E-3,5C000400,-0724,0831,12685,027.4,045.4,0.258,771.7,01.15,0.508
2015-11-18 02:41:00,1682E-3,5C000400,-0724,0834,10103,027.4,045.4,0.258,771.7,01.15,0.508
2015-11-18 02:42:00,1735E-3,5C000400,-0724,0830,11339,027.4,045.4,0.258,771.7,01.15,0.508
2015-11-18 02:43:00,1616E-3,5C000400,-0724,0831,11502,027.4,045.4,0.259,771.7,01.15,0.508
2015-11-18 02:44:00,1574E-3,5C000400,-0724,0835,12756,027.4,045.4,0.258,771.7,01.15,0.508
2015-11-18 02:45:00,1672E-3,5C000400,-0724,0831,11337,027.5,045.4,0.258,771.7,01.15,0.508
2015-11-18 02:46:00,1726E-3,5C000400,-0724,0831,12454,027.5,045.4,0.258,771.7,01.15,0.508
2015-11-18 02:47:00,1719E-3,5C000400,-0724,0835,12385,027.5,045.4,0.258,771.7,01.15,0.508
2015-11-18 02:48:00,1711E-3,5C000400,-0724,0830,12490,027.5,045.4,0.258,771.7,01.15,0.508
2015-11-18 02:49:00,1903E-3,5C000400,-0724,0832,11248,027.5,045.4,0.258,771.7,01.15,0.508
2015-11-18 02:50:00,1676E-3,5C000400,-0724,0829,10054,027.5,045.4,0.258,771.7,01.15,0.508
2015-11-18 02:51:00,1804E-3,5C000400,-0724,0830,11114,027.5,045.4,0.258,771.7,01.15,0.508
2015-11-18 02:52:00,1652E-3,5C000400,-0724,0835,12836,027.5,045.4,0.258,771.7,01.15,0.508
2015-11-18 02:53:00,1721E-3,5C000400,-0724,0833,11393,027.5,045.4,0.258,771.7,01.15,0.508
2015-11-18 02:54:00,1895E-3,5C000400,-0724,0832,12728,027.5,045.4,0.258,771.7,01.15,0.508
2015-11-18 02:55:00,1730E-3,5C000400,-0724,0832,12809,027.5,045.4,0.258,771.7,01.15,0.508
2015-11-18 02:56:00,1743E-3,5C000400,-0724,0834,9975,027.5,045.4,0.258,771.7,01.15,0.508
2015-11-18 02:57:00,1714E-3,5C000400,-0724,0830,11131,027.5,045.4,0.258,771.8,01.15,0.508
2015-11-18 02:58:00,1834E-3,5C000400,-0724,0830,11296,027.5,045.4,0.258,771.7,01.15,0.508
2015-11-18 02:59:00,1812E-3,5C000400,-0724,0831,12536,027.5,045.4,0.258,771.8,01.15,0.508
2015-11-18 03:00:00,1818E-3,5C000400,-0724,0833,12477,027.5,045.4,0.258,771.8,01.15,0.508
2015-11-18 03:01:00,1614E-3,5C000400,-0724,0832,12278,027.5,045.4,0.257,771.7,01.15,0.508
2015-11-18 03:02:00,1674E-3,5C000400,-0724,0835,11546,027.5,045.4,0.258,771.8,01.15,0.508
2015-11-18 03:03:00,1726E-3,5C000400,-0724,0830,12257,027.5,045.4,0.258,771.8,01.15,0.508
2015-11-18 03:04:00,1692E-3,5C000400,-0724,0835,11340,027.5,045.4,0.258,771.8,01.15,0.508
2015-11-18 03:05:00,1830E-3,5C000400,-0724,0830,12259,027.5,045.4,0.258,771.8,01.15,0.508
2015-11-18 03:06:00,1895E-3,5C000400,-0724,0829,12228,027.5,045.4,0.258,771.8,01.15,0.508
2015-11-18 03:07:00,1794E-3,5C000400,-0724,0832,12759,027.5,045.4,0.258,771.8,01.15,0.508
2015-11-18 03:08:00,1770E-3,5C000400,-0724,0831,12447,027.5,045.4,0.258,771.8,01.15,0.508
2015-11-18 03:09:00,1846E-3,5C000400,-0724,0831,9982,027.5,045.4,0.258,771.9,01.15,0.508
2015-11-18 03:10:00,1835E-3,5C000400,-0724,0831,12354,027.6,045.4,0.258,771.9,01.15,0.508
2015-11-18 03:11:00,1767E-3,5C000400,-0724,0831,11259,027.6,045.4,0.258,771.9,01.15,0.508
2015-11-18 03:12:00,1787E-3,5C000400,-0724,0831,12327,027.6,045.4,0.258,771.9,01.15,0.508
2015-11-18 03:13:00,1842E-3,5C000410,-0724,0832,12552,027.6,045.4,0.258,772.0,01.15,0.508
2015-11-18 03:14:00,1784E-3,5C000400,-0724,0834,11474,027.6,045.4,0.258,772.0,01.15,0.508
2015-11-18 03:15:00,1767E-3,5C000400,-0724,0833,12590,027.6,045.4,0.257,772.0,01.15,0.508
2015-11-18 03:16:00,1727E-3,5C000410,-0724,0833,12735,027.6,045.4,0.258,772.0,01.15,0.508
2015-11-18 03:17:00,1661E-3,5C000400,-0724,0831,11429,027.6,045.4,0.258,772.0,01.15,0.508
2015-11-18 03:18:00,1568E-3,5C000400,-0724,0837,11468,027.6,045.4,0.258,772.1,01.15,0.508
2015-11-18 03:19:00,1769E-3,5C000400,-0724,0831,11467,027.6,045.4,0.258,772.1,01.15,0.508
2015-11-18 03:20:00,1786E-3,5C000400,-0724,0833,12448,027.6,045.4,0.258,772.1,01.15,0.508
2015-11-18 03:21:00,1731E-3,5C000400,-0724,0834,12420,027.6,045.4,0.258,772.1,01.15,0.508
2015-11-18 03:22:00,1738E-3,5C000400,-0724,0831,11477,027.6,045.4,0.258,772.1,01.15,0.508
2015-11-18 03:23:00,1737E-3,5C000400,-0724,0830,12739,027.6,045.4,0.258,772.1,01.15,0.508
2015-11-18 03:24:00,1698E-3,5C000400,-0724,0834,11475,027.6,045.4,0.258,772.1,01.15,0.508
2015-11-18 03:25:00,1704E-3,5C000400,-0724,0832,12672,027.6,045.4,0.257,772.0,01.15,0.508
2015-11-18 03:26:00,1786E-3,5C000400,-0724,0833,12529,027.6,045.4,0.258,772.0,01.15,0.508
2015-11-18 03:27:00,1737E-3,5C000400,-0724,0837,7907,027.6,045.4,0.258,772.0,01.15,0.508
2015-11-18 03:28:00,1563E-3,5C000400,-0724,0829,12423,027.6,045.4,0.258,772.0,01.15,0.508
2015-11-18 03:29:00,1691E-3,5C000400,-0724,0831,11412,027.6,045.4,0.258,772.0,01.15,0.508
2015-11-18 03:30:00,1655E-3,5C000400,-0724,0831,12277,027.6,045.4,0.257,772.0,01.15,0.508
2015-11-18 03:31:00,1748E-3,5C000400,-0724,0831,12453,027.6,045.4,0.258,772.0,01.15,0.508
2015-11-18 03:32:00,1890E-3,5C000400,-0724,0832,11527,027.6,045.4,0.258,772.0,01.15,0.508
2015-11-18 03:33:00,1669E-3,5C000400,-0724,0831,12566,027.6,045.4,0.258,772.0,01.15,0.508
2015-11-18 03:34:00,1678E-3,5C000400,-0724,0833,7595,027.6,045.4,0.258,772.0,01.15,0.508
2015-11-18 03:35:00,1728E-3,5C000400,-0724,0828,12371,027.6,045.4,0.257,771.9,01.15,0.508
2015-11-18 03:36:00,1855E-3,5C000400,-0724,0833,12313,027.6,045.4,0.258,771.9,01.15,0.508
2015-11-18 03:37:00,1532E-3,5C000400,-0724,0830,12328,027.6,045.4,0.258,771.8,01.15,0.508
2015-11-18 03:38:00,1619E-3,5C000400,-0724,0836,12746,027.6,045.4,0.258,771.8,01.15,0.508
2015-11-18 03:39:00,1799E-3,5C000400,-0724,0831,12425,027.6,045.4,0.258,771.8,01.15,0.508
2015-11-18 03:40:00,1680E-3,5C000400,-0724,0837,12804,027.6,045.4,0.258,771.7,01.15,0.508
2015-11-18 03:41:00,1694E-3,5C000400,-0724,0831,11322,027.6,045.4,0.258,771.7,01.15,0.508
2015-11-18 03:42:00,1770E-3,5C000400,-0724,0830,11298,027.6,045.4,0.258,771.7,01.15,0.508
2015-11-18 03:43:00,1675E-3,5C000400,-0724,0828,10112,027.6,045.4,0.258,771.7,01.15,0.508
2015-11-18 03:44:00,1583E-3,5C000400,-0724,0837,11675,027.6,045.4,0.257,771.8,01.15,0.508
2015-11-18 03:45:00,1792E-3,5C000400,-0724,0834,12729,027.6,045.4,0.258,771.7,01.15,0.508
2015-11-18 03:46:00,1806E-3,5C000400,-0724,0830,12680,027.6,045.4,0.258,771.7,01.15,0.508
2015-11-18 03:47:00,1629E-3,5C000400,-0724,0831,11705,027.6,045.4,0.258,771.6,01.15,0.508
2015-11-18 03:48:00,1686E-3,5C000400,-0724,0834,12526,027.6,045.4,0.258,771.7,01.15,0.508
2015-11-18 03:49:00,1689E-3,5C000400,-0724,0835,12702,027.6,045.4,0.257,771.6,01.15,0.508
2015-11-18 03:50:00,1705E-3,5C000400,-0724,0834,11158,027.6,045.4,0.258,771.7,01.15,0.508
2015-11-18 03:51:00,1785E-3,5C000410,-0724,0834,12645,027.6,045.4,0.258,771.6,01.15,0.508
2015-11-18 03:52:00,1878E-3,5C000400,-0724,0837,12354,027.6,045.4,0.258,771.5,01.15,0.508
2015-11-18 03:53:00,1789E-3,5C000400,-0724,0834,11219,027.6,045.4,0.258,771.6,01.15,0.508
2015-11-18 03:54:00,1717E-3,5C000400,-0724,0836,10133,027.6,045.4,0.257,771.6,01.15,0.508
2015-11-18 03:55:00,1657E-3,5C000400,-0724,0839,10232,027.6,045.4,0.258,771.6,01.15,0.508
2015-11-18 03:56:00,1701E-3,5C000400,-0724,0838,11606,027.6,045.4,0.258,771.6,01.15,0.508
2015-11-18 03:57:00,1796E-3,5C000400,-0724,0835,11585,027.6,045.4,0.258,771.6,01.15,0.508
2015-11-18 03:58:00,1810E-3,5C000400,-0724,0830,8890,027.7,045.4,0.258,771.6,01.15,0.508
2015-11-18 03:59:00,1650E-3,5C000400,-0724,0829,11211,027.6,045.4,0.257,771.6,01.15,0.508
2015-11-18 04:00:00,1831E-3,5C000400,-0724,0832,11092,027.6,045.4,0.258,771.6,01.15,0.508
2015-11-18 04:01:00,1766E-3,5C000410,-0724,0829,9975,027.6,045.4,0.258,771.6,01.15,0.508
2015-11-18 04:02:00,1730E-3,5C000400,-0724,0833,12773,027.6,045.4,0.258,771.6,01.15,0.508
2015-11-18 04:03:00,1793E-3,5C000400,-0724,0831,12373,027.6,045.4,0.258,771.6,01.15,0.508
2015-11-18 04:04:00,1803E-3,5C000400,-0724,0831,12418,027.6,045.4,0.257,771.7,01.15,0.508
2015-11-18 04:05:00,1774E-3,5C000400,-0724,0830,11017,027.6,045.4,0.258,771.7,01.15,0.508
2015-11-18 04:06:00,1754E-3,5C000400,-0724,0833,11464,027.6,045.4,0.258,771.5,01.15,0.508
2015-11-18 04:07:00,1651E-3,5C000400,-0724,0833,9970,027.6,045.4,0.258,771.6,01.15,0.508
2015-11-18 04:08:00,1620E-3,5C000400,-0724,0832,12561,027.7,045.4,0.258,771.6,01.15,0.508
2015-11-18 04:09:00,1800E-3,5C000400,-0724,0832,11379,027.6,045.4,0.257,771.7,01.15,0.508
2015-11-18 04:10:00,1735E-3,5C000400,-0724,0832,11183,027.7,045.4,0.258,771.7,01.15,0.508
2015-11-18 04:11:00,1811E-3,5C000400,-0724,0828,10239,027.6,045.4,0.258,771.7,01.15,0.508
2015-11-18 04:12:00,1816E-3,5C000400,-0724,0836,11307,027.6,045.4,0.257,771.7,01.15,0.508
2015-11-18 04:13:00,1916E-3,5C000400,-0724,0832,11240,027.6,045.4,0.258,771.7,01.15,0.508
2015-11-18 04:14:00,1791E-3,5C000400,-0724,0830,12248,027.6,045.4,0.258,771.8,01.15,0.508
2015-11-18 04:15:00,1733E-3,5C000400,-0724,0833,12576,027.6,045.4,0.258,771.7,01.15,0.508
2015-11-18 04:16:00,1659E-3,5C000400,-0724,0833,12583,027.6,045.4,0.258,771.6,01.15,0.508
2015-11-18 04:17:00,1645E-3,5C000400,-0724,0833,12626,027.6,045.4,0.257,771.7,01.15,0.508
2015-11-18 04:18:00,1764E-3,5C000400,-0724,0834,11349,027.7,045.4,0.258,771.7,01.15,0.508
2015-11-18 04:19:00,1719E-3,5C000400,-0724,0839,11262,027.6,045.4,0.258,771.7,01.15,0.508
2015-11-18 04:20:00,1786E-3,5C000400,-0724,0832,12766,027.6,045.4,0.257,771.6,01.15,0.508